Location: Camp Creek
(33.9000°N, 111.8167°W)
Time: 16:06:44
(UTC-07:00)

DELTA 2 R/B (1) - Visible Passes

Search period start: 20 December 2014 00:00
Search period end: 30 December 2014 00:00
Orbit: 792 x 803 km, 39.6° (Epoch: 19 December)

Date Brightness Start Highest point End Pass type
(mag) Time Alt. Az. Time Alt. Az. Time Alt. Az.
20 Dec 5.8 04:14:20 19° ENE 04:14:20 19° ENE 04:15:54 10° ENE visible
20 Dec 3.8 05:55:07 32° NW 05:57:34 57° NNE 06:03:01 10° E visible
21 Dec 3.8 05:26:08 51° NNW 05:26:53 55° NNE 05:32:19 10° E visible
22 Dec 4.3 04:57:10 48° NE 04:57:10 48° NE 05:01:38 10° E visible
22 Dec 3.7 06:37:57 13° WNW 06:42:49 67° SSW 06:48:18 10° SE visible
23 Dec 5.3 04:28:13 28° ENE 04:28:13 28° ENE 04:30:56 10° E visible
23 Dec 3.6 06:09:01 26° WNW 06:12:11 73° SSW 06:17:41 10° ESE visible
24 Dec 6.2 03:59:18 15° E 03:59:18 15° E 04:00:14 10° E visible
24 Dec 3.5 05:40:06 50° W 05:41:32 78° SSW 05:47:04 10° ESE visible
25 Dec 3.5 05:11:13 78° SSE 05:11:13 78° SSE 05:16:26 10° ESE visible
25 Dec 5.1 06:52:38 10° W 06:56:53 23° SW 07:01:09 10° SSE visible
26 Dec 4.7 04:42:23 39° ESE 04:42:23 39° ESE 04:45:47 10° ESE visible
26 Dec 4.9 06:23:11 16° W 06:26:17 25° SW 06:30:44 10° SSE visible
27 Dec 5.9 04:13:35 20° ESE 04:13:35 20° ESE 04:15:08 10° ESE visible
27 Dec 4.7 05:54:23 25° WSW 05:55:41 28° SW 06:00:18 10° SSE visible
28 Dec 4.7 05:25:37 29° SSW 05:25:37 29° SSW 05:29:50 10° SSE visible
29 Dec 5.3 04:56:54 23° S 04:56:54 23° S 04:59:21 10° SSE visible
